<?xml version="1.0"?>
<gpx xmlns="http://www.topografix.com/GPX/1/1" xmlns:xsi="http://www.w3.org/2001/XMLSchema-instance" version="1.1" creator="GPX RubyGem 1.0.0 -- http://dougfales.github.io/gpx/" xsi:schemaLocation="http://www.topografix.com/GPX/1/1 http://www.topografix.com/GPX/1/1/gpx.xsd">
  <metadata>
    <name/>
    <time>2026-05-08T19:56:19+00:00</time>
    <bound minlat="90.0" minlon="180.0" maxlat="-90.0" maxlon="-180.0"/>
  </metadata>
  <trk>
    <name/>
    <trkseg>
      <trkpt lat="47.912898" lon="8.078695">
        <time>1970-01-01T00:00:00+00:00</time>
        <ele>739.0</ele>
      </trkpt>
      <trkpt lat="47.912814" lon="8.078918">
        <time>1970-01-01T00:00:00+00:00</time>
        <ele>740.0</ele>
      </trkpt>
      <trkpt lat="47.912644" lon="8.079309">
        <time>1970-01-01T00:00:00+00:00</time>
        <ele>745.0</ele>
      </trkpt>
      <trkpt lat="47.912583" lon="8.079307">
        <time>1970-01-01T00:00:00+00:00</time>
        <ele>745.0</ele>
      </trkpt>
      <trkpt lat="47.912421" lon="8.079236">
        <time>1970-01-01T00:00:00+00:00</time>
        <ele>746.0</ele>
      </trkpt>
      <trkpt lat="47.91217" lon="8.079134">
        <time>1970-01-01T00:00:00+00:00</time>
        <ele>754.0</ele>
      </trkpt>
      <trkpt lat="47.912133" lon="8.079087">
        <time>1970-01-01T00:00:00+00:00</time>
        <ele>756.0</ele>
      </trkpt>
      <trkpt lat="47.912002" lon="8.078606">
        <time>1970-01-01T00:00:00+00:00</time>
        <ele>759.0</ele>
      </trkpt>
      <trkpt lat="47.911947" lon="8.078602">
        <time>1970-01-01T00:00:00+00:00</time>
        <ele>762.0</ele>
      </trkpt>
      <trkpt lat="47.912074" lon="8.078021">
        <time>1970-01-01T00:00:00+00:00</time>
        <ele>751.0</ele>
      </trkpt>
      <trkpt lat="47.912165" lon="8.077759">
        <time>1970-01-01T00:00:00+00:00</time>
        <ele>748.0</ele>
      </trkpt>
      <trkpt lat="47.912247" lon="8.077677">
        <time>1970-01-01T00:00:00+00:00</time>
        <ele>745.0</ele>
      </trkpt>
      <trkpt lat="47.912158" lon="8.077471">
        <time>1970-01-01T00:00:00+00:00</time>
        <ele>750.0</ele>
      </trkpt>
      <trkpt lat="47.912136" lon="8.077362">
        <time>1970-01-01T00:00:00+00:00</time>
        <ele>752.0</ele>
      </trkpt>
      <trkpt lat="47.912091" lon="8.077222">
        <time>1970-01-01T00:00:00+00:00</time>
        <ele>756.0</ele>
      </trkpt>
      <trkpt lat="47.912125" lon="8.076582">
        <time>1970-01-01T00:00:00+00:00</time>
        <ele>767.0</ele>
      </trkpt>
      <trkpt lat="47.912334" lon="8.07566">
        <time>1970-01-01T00:00:00+00:00</time>
        <ele>780.0</ele>
      </trkpt>
      <trkpt lat="47.912334" lon="8.075402">
        <time>1970-01-01T00:00:00+00:00</time>
        <ele>785.0</ele>
      </trkpt>
      <trkpt lat="47.912293" lon="8.075189">
        <time>1970-01-01T00:00:00+00:00</time>
        <ele>794.0</ele>
      </trkpt>
      <trkpt lat="47.912435" lon="8.074678">
        <time>1970-01-01T00:00:00+00:00</time>
        <ele>799.0</ele>
      </trkpt>
      <trkpt lat="47.912565" lon="8.074084">
        <time>1970-01-01T00:00:00+00:00</time>
        <ele>813.0</ele>
      </trkpt>
      <trkpt lat="47.912782" lon="8.073491">
        <time>1970-01-01T00:00:00+00:00</time>
        <ele>822.0</ele>
      </trkpt>
      <trkpt lat="47.912939" lon="8.072983">
        <time>1970-01-01T00:00:00+00:00</time>
        <ele>834.0</ele>
      </trkpt>
      <trkpt lat="47.913073" lon="8.07261">
        <time>1970-01-01T00:00:00+00:00</time>
        <ele>842.0</ele>
      </trkpt>
      <trkpt lat="47.913357" lon="8.072125">
        <time>1970-01-01T00:00:00+00:00</time>
        <ele>845.0</ele>
      </trkpt>
      <trkpt lat="47.913424" lon="8.071919">
        <time>1970-01-01T00:00:00+00:00</time>
        <ele>852.0</ele>
      </trkpt>
      <trkpt lat="47.913427" lon="8.071735">
        <time>1970-01-01T00:00:00+00:00</time>
        <ele>861.0</ele>
      </trkpt>
      <trkpt lat="47.913365" lon="8.071349">
        <time>1970-01-01T00:00:00+00:00</time>
        <ele>879.0</ele>
      </trkpt>
      <trkpt lat="47.913385" lon="8.071126">
        <time>1970-01-01T00:00:00+00:00</time>
        <ele>882.0</ele>
      </trkpt>
      <trkpt lat="47.913476" lon="8.070768">
        <time>1970-01-01T00:00:00+00:00</time>
        <ele>885.0</ele>
      </trkpt>
      <trkpt lat="47.91371" lon="8.070375">
        <time>1970-01-01T00:00:00+00:00</time>
        <ele>884.0</ele>
      </trkpt>
      <trkpt lat="47.91376" lon="8.070233">
        <time>1970-01-01T00:00:00+00:00</time>
        <ele>885.0</ele>
      </trkpt>
      <trkpt lat="47.913799" lon="8.070008">
        <time>1970-01-01T00:00:00+00:00</time>
        <ele>888.0</ele>
      </trkpt>
      <trkpt lat="47.913821" lon="8.069658">
        <time>1970-01-01T00:00:00+00:00</time>
        <ele>891.0</ele>
      </trkpt>
      <trkpt lat="47.913782" lon="8.069345">
        <time>1970-01-01T00:00:00+00:00</time>
        <ele>895.0</ele>
      </trkpt>
      <trkpt lat="47.913707" lon="8.069202">
        <time>1970-01-01T00:00:00+00:00</time>
        <ele>898.0</ele>
      </trkpt>
      <trkpt lat="47.913593" lon="8.068897">
        <time>1970-01-01T00:00:00+00:00</time>
        <ele>904.0</ele>
      </trkpt>
      <trkpt lat="47.91357" lon="8.068652">
        <time>1970-01-01T00:00:00+00:00</time>
        <ele>907.0</ele>
      </trkpt>
      <trkpt lat="47.913452" lon="8.068383">
        <time>1970-01-01T00:00:00+00:00</time>
        <ele>913.0</ele>
      </trkpt>
      <trkpt lat="47.913189" lon="8.067718">
        <time>1970-01-01T00:00:00+00:00</time>
        <ele>921.0</ele>
      </trkpt>
      <trkpt lat="47.912879" lon="8.067346">
        <time>1970-01-01T00:00:00+00:00</time>
        <ele>922.0</ele>
      </trkpt>
      <trkpt lat="47.912704" lon="8.067181">
        <time>1970-01-01T00:00:00+00:00</time>
        <ele>922.0</ele>
      </trkpt>
      <trkpt lat="47.912379" lon="8.066529">
        <time>1970-01-01T00:00:00+00:00</time>
        <ele>917.0</ele>
      </trkpt>
      <trkpt lat="47.912312" lon="8.066354">
        <time>1970-01-01T00:00:00+00:00</time>
        <ele>914.0</ele>
      </trkpt>
      <trkpt lat="47.912257" lon="8.066577">
        <time>1970-01-01T00:00:00+00:00</time>
        <ele>919.0</ele>
      </trkpt>
      <trkpt lat="47.91204" lon="8.067055">
        <time>1970-01-01T00:00:00+00:00</time>
        <ele>926.0</ele>
      </trkpt>
      <trkpt lat="47.912155" lon="8.068205">
        <time>1970-01-01T00:00:00+00:00</time>
        <ele>920.0</ele>
      </trkpt>
      <trkpt lat="47.911928" lon="8.068429">
        <time>1970-01-01T00:00:00+00:00</time>
        <ele>927.0</ele>
      </trkpt>
      <trkpt lat="47.911924" lon="8.069124">
        <time>1970-01-01T00:00:00+00:00</time>
        <ele>926.0</ele>
      </trkpt>
      <trkpt lat="47.91166" lon="8.06901">
        <time>1970-01-01T00:00:00+00:00</time>
        <ele>935.0</ele>
      </trkpt>
      <trkpt lat="47.911849" lon="8.070511">
        <time>1970-01-01T00:00:00+00:00</time>
        <ele>928.0</ele>
      </trkpt>
      <trkpt lat="47.911548" lon="8.072043">
        <time>1970-01-01T00:00:00+00:00</time>
        <ele>928.0</ele>
      </trkpt>
      <trkpt lat="47.911153" lon="8.072902">
        <time>1970-01-01T00:00:00+00:00</time>
        <ele>924.0</ele>
      </trkpt>
      <trkpt lat="47.91041" lon="8.074305">
        <time>1970-01-01T00:00:00+00:00</time>
        <ele>918.0</ele>
      </trkpt>
      <trkpt lat="47.910157" lon="8.074644">
        <time>1970-01-01T00:00:00+00:00</time>
        <ele>916.0</ele>
      </trkpt>
      <trkpt lat="47.909916" lon="8.074739">
        <time>1970-01-01T00:00:00+00:00</time>
        <ele>923.0</ele>
      </trkpt>
      <trkpt lat="47.909741" lon="8.074918">
        <time>1970-01-01T00:00:00+00:00</time>
        <ele>925.0</ele>
      </trkpt>
      <trkpt lat="47.909695" lon="8.075108">
        <time>1970-01-01T00:00:00+00:00</time>
        <ele>919.0</ele>
      </trkpt>
      <trkpt lat="47.909546" lon="8.075356">
        <time>1970-01-01T00:00:00+00:00</time>
        <ele>915.0</ele>
      </trkpt>
      <trkpt lat="47.909439" lon="8.075728">
        <time>1970-01-01T00:00:00+00:00</time>
        <ele>912.0</ele>
      </trkpt>
      <trkpt lat="47.909509" lon="8.075983">
        <time>1970-01-01T00:00:00+00:00</time>
        <ele>907.0</ele>
      </trkpt>
      <trkpt lat="47.909496" lon="8.076183">
        <time>1970-01-01T00:00:00+00:00</time>
        <ele>905.0</ele>
      </trkpt>
      <trkpt lat="47.909551" lon="8.07636">
        <time>1970-01-01T00:00:00+00:00</time>
        <ele>902.0</ele>
      </trkpt>
      <trkpt lat="47.909405" lon="8.077025">
        <time>1970-01-01T00:00:00+00:00</time>
        <ele>896.0</ele>
      </trkpt>
      <trkpt lat="47.909734" lon="8.076642">
        <time>1970-01-01T00:00:00+00:00</time>
        <ele>895.0</ele>
      </trkpt>
      <trkpt lat="47.909819" lon="8.07712">
        <time>1970-01-01T00:00:00+00:00</time>
        <ele>888.0</ele>
      </trkpt>
      <trkpt lat="47.909882" lon="8.077594">
        <time>1970-01-01T00:00:00+00:00</time>
        <ele>889.0</ele>
      </trkpt>
      <trkpt lat="47.910018" lon="8.077711">
        <time>1970-01-01T00:00:00+00:00</time>
        <ele>888.0</ele>
      </trkpt>
      <trkpt lat="47.910148" lon="8.077936">
        <time>1970-01-01T00:00:00+00:00</time>
        <ele>888.0</ele>
      </trkpt>
      <trkpt lat="47.91013" lon="8.077784">
        <time>1970-01-01T00:00:00+00:00</time>
        <ele>887.0</ele>
      </trkpt>
      <trkpt lat="47.91013" lon="8.077784">
        <time>1970-01-01T00:00:00+00:00</time>
        <ele>887.0</ele>
      </trkpt>
      <trkpt lat="47.910148" lon="8.077936">
        <time>1970-01-01T00:00:00+00:00</time>
        <ele>888.0</ele>
      </trkpt>
      <trkpt lat="47.910018" lon="8.077711">
        <time>1970-01-01T00:00:00+00:00</time>
        <ele>888.0</ele>
      </trkpt>
      <trkpt lat="47.909882" lon="8.077594">
        <time>1970-01-01T00:00:00+00:00</time>
        <ele>889.0</ele>
      </trkpt>
      <trkpt lat="47.909819" lon="8.07712">
        <time>1970-01-01T00:00:00+00:00</time>
        <ele>888.0</ele>
      </trkpt>
      <trkpt lat="47.909734" lon="8.076642">
        <time>1970-01-01T00:00:00+00:00</time>
        <ele>895.0</ele>
      </trkpt>
      <trkpt lat="47.909405" lon="8.077025">
        <time>1970-01-01T00:00:00+00:00</time>
        <ele>896.0</ele>
      </trkpt>
      <trkpt lat="47.909551" lon="8.07636">
        <time>1970-01-01T00:00:00+00:00</time>
        <ele>902.0</ele>
      </trkpt>
      <trkpt lat="47.909496" lon="8.076183">
        <time>1970-01-01T00:00:00+00:00</time>
        <ele>905.0</ele>
      </trkpt>
      <trkpt lat="47.909509" lon="8.075983">
        <time>1970-01-01T00:00:00+00:00</time>
        <ele>907.0</ele>
      </trkpt>
      <trkpt lat="47.909439" lon="8.075728">
        <time>1970-01-01T00:00:00+00:00</time>
        <ele>912.0</ele>
      </trkpt>
      <trkpt lat="47.909546" lon="8.075356">
        <time>1970-01-01T00:00:00+00:00</time>
        <ele>915.0</ele>
      </trkpt>
      <trkpt lat="47.909695" lon="8.075108">
        <time>1970-01-01T00:00:00+00:00</time>
        <ele>919.0</ele>
      </trkpt>
      <trkpt lat="47.909741" lon="8.074918">
        <time>1970-01-01T00:00:00+00:00</time>
        <ele>925.0</ele>
      </trkpt>
      <trkpt lat="47.909916" lon="8.074739">
        <time>1970-01-01T00:00:00+00:00</time>
        <ele>923.0</ele>
      </trkpt>
      <trkpt lat="47.910157" lon="8.074644">
        <time>1970-01-01T00:00:00+00:00</time>
        <ele>916.0</ele>
      </trkpt>
      <trkpt lat="47.91041" lon="8.074305">
        <time>1970-01-01T00:00:00+00:00</time>
        <ele>918.0</ele>
      </trkpt>
      <trkpt lat="47.911153" lon="8.072902">
        <time>1970-01-01T00:00:00+00:00</time>
        <ele>924.0</ele>
      </trkpt>
      <trkpt lat="47.911548" lon="8.072043">
        <time>1970-01-01T00:00:00+00:00</time>
        <ele>928.0</ele>
      </trkpt>
      <trkpt lat="47.911849" lon="8.070511">
        <time>1970-01-01T00:00:00+00:00</time>
        <ele>928.0</ele>
      </trkpt>
      <trkpt lat="47.91166" lon="8.06901">
        <time>1970-01-01T00:00:00+00:00</time>
        <ele>935.0</ele>
      </trkpt>
      <trkpt lat="47.911924" lon="8.069124">
        <time>1970-01-01T00:00:00+00:00</time>
        <ele>926.0</ele>
      </trkpt>
      <trkpt lat="47.911928" lon="8.068429">
        <time>1970-01-01T00:00:00+00:00</time>
        <ele>927.0</ele>
      </trkpt>
      <trkpt lat="47.912155" lon="8.068205">
        <time>1970-01-01T00:00:00+00:00</time>
        <ele>920.0</ele>
      </trkpt>
      <trkpt lat="47.91204" lon="8.067055">
        <time>1970-01-01T00:00:00+00:00</time>
        <ele>926.0</ele>
      </trkpt>
      <trkpt lat="47.912257" lon="8.066577">
        <time>1970-01-01T00:00:00+00:00</time>
        <ele>919.0</ele>
      </trkpt>
      <trkpt lat="47.912312" lon="8.066354">
        <time>1970-01-01T00:00:00+00:00</time>
        <ele>914.0</ele>
      </trkpt>
      <trkpt lat="47.912379" lon="8.066529">
        <time>1970-01-01T00:00:00+00:00</time>
        <ele>917.0</ele>
      </trkpt>
      <trkpt lat="47.912704" lon="8.067181">
        <time>1970-01-01T00:00:00+00:00</time>
        <ele>922.0</ele>
      </trkpt>
      <trkpt lat="47.912879" lon="8.067346">
        <time>1970-01-01T00:00:00+00:00</time>
        <ele>922.0</ele>
      </trkpt>
      <trkpt lat="47.913189" lon="8.067718">
        <time>1970-01-01T00:00:00+00:00</time>
        <ele>921.0</ele>
      </trkpt>
      <trkpt lat="47.913452" lon="8.068383">
        <time>1970-01-01T00:00:00+00:00</time>
        <ele>913.0</ele>
      </trkpt>
      <trkpt lat="47.91357" lon="8.068652">
        <time>1970-01-01T00:00:00+00:00</time>
        <ele>907.0</ele>
      </trkpt>
      <trkpt lat="47.913593" lon="8.068897">
        <time>1970-01-01T00:00:00+00:00</time>
        <ele>904.0</ele>
      </trkpt>
      <trkpt lat="47.913707" lon="8.069202">
        <time>1970-01-01T00:00:00+00:00</time>
        <ele>898.0</ele>
      </trkpt>
      <trkpt lat="47.913782" lon="8.069345">
        <time>1970-01-01T00:00:00+00:00</time>
        <ele>895.0</ele>
      </trkpt>
      <trkpt lat="47.913821" lon="8.069658">
        <time>1970-01-01T00:00:00+00:00</time>
        <ele>891.0</ele>
      </trkpt>
      <trkpt lat="47.913799" lon="8.070008">
        <time>1970-01-01T00:00:00+00:00</time>
        <ele>888.0</ele>
      </trkpt>
      <trkpt lat="47.91376" lon="8.070233">
        <time>1970-01-01T00:00:00+00:00</time>
        <ele>885.0</ele>
      </trkpt>
      <trkpt lat="47.91371" lon="8.070375">
        <time>1970-01-01T00:00:00+00:00</time>
        <ele>884.0</ele>
      </trkpt>
      <trkpt lat="47.913476" lon="8.070768">
        <time>1970-01-01T00:00:00+00:00</time>
        <ele>885.0</ele>
      </trkpt>
      <trkpt lat="47.913385" lon="8.071126">
        <time>1970-01-01T00:00:00+00:00</time>
        <ele>882.0</ele>
      </trkpt>
      <trkpt lat="47.913365" lon="8.071349">
        <time>1970-01-01T00:00:00+00:00</time>
        <ele>879.0</ele>
      </trkpt>
      <trkpt lat="47.913427" lon="8.071735">
        <time>1970-01-01T00:00:00+00:00</time>
        <ele>861.0</ele>
      </trkpt>
      <trkpt lat="47.913424" lon="8.071919">
        <time>1970-01-01T00:00:00+00:00</time>
        <ele>852.0</ele>
      </trkpt>
      <trkpt lat="47.913357" lon="8.072125">
        <time>1970-01-01T00:00:00+00:00</time>
        <ele>845.0</ele>
      </trkpt>
      <trkpt lat="47.913073" lon="8.07261">
        <time>1970-01-01T00:00:00+00:00</time>
        <ele>842.0</ele>
      </trkpt>
      <trkpt lat="47.912939" lon="8.072983">
        <time>1970-01-01T00:00:00+00:00</time>
        <ele>834.0</ele>
      </trkpt>
      <trkpt lat="47.912782" lon="8.073491">
        <time>1970-01-01T00:00:00+00:00</time>
        <ele>822.0</ele>
      </trkpt>
      <trkpt lat="47.912565" lon="8.074084">
        <time>1970-01-01T00:00:00+00:00</time>
        <ele>813.0</ele>
      </trkpt>
      <trkpt lat="47.912435" lon="8.074678">
        <time>1970-01-01T00:00:00+00:00</time>
        <ele>799.0</ele>
      </trkpt>
      <trkpt lat="47.912293" lon="8.075189">
        <time>1970-01-01T00:00:00+00:00</time>
        <ele>794.0</ele>
      </trkpt>
      <trkpt lat="47.912334" lon="8.075402">
        <time>1970-01-01T00:00:00+00:00</time>
        <ele>785.0</ele>
      </trkpt>
      <trkpt lat="47.912334" lon="8.07566">
        <time>1970-01-01T00:00:00+00:00</time>
        <ele>780.0</ele>
      </trkpt>
      <trkpt lat="47.912125" lon="8.076582">
        <time>1970-01-01T00:00:00+00:00</time>
        <ele>767.0</ele>
      </trkpt>
      <trkpt lat="47.912091" lon="8.077222">
        <time>1970-01-01T00:00:00+00:00</time>
        <ele>756.0</ele>
      </trkpt>
      <trkpt lat="47.912136" lon="8.077362">
        <time>1970-01-01T00:00:00+00:00</time>
        <ele>752.0</ele>
      </trkpt>
      <trkpt lat="47.912158" lon="8.077471">
        <time>1970-01-01T00:00:00+00:00</time>
        <ele>750.0</ele>
      </trkpt>
      <trkpt lat="47.912247" lon="8.077677">
        <time>1970-01-01T00:00:00+00:00</time>
        <ele>745.0</ele>
      </trkpt>
      <trkpt lat="47.912165" lon="8.077759">
        <time>1970-01-01T00:00:00+00:00</time>
        <ele>748.0</ele>
      </trkpt>
      <trkpt lat="47.912074" lon="8.078021">
        <time>1970-01-01T00:00:00+00:00</time>
        <ele>751.0</ele>
      </trkpt>
      <trkpt lat="47.911947" lon="8.078602">
        <time>1970-01-01T00:00:00+00:00</time>
        <ele>762.0</ele>
      </trkpt>
      <trkpt lat="47.912002" lon="8.078606">
        <time>1970-01-01T00:00:00+00:00</time>
        <ele>759.0</ele>
      </trkpt>
      <trkpt lat="47.912133" lon="8.079087">
        <time>1970-01-01T00:00:00+00:00</time>
        <ele>756.0</ele>
      </trkpt>
      <trkpt lat="47.91217" lon="8.079134">
        <time>1970-01-01T00:00:00+00:00</time>
        <ele>754.0</ele>
      </trkpt>
      <trkpt lat="47.912421" lon="8.079236">
        <time>1970-01-01T00:00:00+00:00</time>
        <ele>746.0</ele>
      </trkpt>
      <trkpt lat="47.912583" lon="8.079307">
        <time>1970-01-01T00:00:00+00:00</time>
        <ele>745.0</ele>
      </trkpt>
      <trkpt lat="47.912644" lon="8.079309">
        <time>1970-01-01T00:00:00+00:00</time>
        <ele>745.0</ele>
      </trkpt>
      <trkpt lat="47.912814" lon="8.078918">
        <time>1970-01-01T00:00:00+00:00</time>
        <ele>740.0</ele>
      </trkpt>
      <trkpt lat="47.912898" lon="8.078695">
        <time>1970-01-01T00:00:00+00:00</time>
        <ele>739.0</ele>
      </trkpt>
    </trkseg>
  </trk>
</gpx>
